Location: Ledgewood Mobile Home Park
(41.3425°N, 81.5072°W)
Time: 08:28:36
(UTC+00:00)

Daily predictions for brighter satellites

Satellite Brightness Start Highest point End
(mag) Time Altitude Azimuth Time Altitude Azimuth Time Altitude Azimuth
NOSS 2-2 (D) 4.5 12:00:06 10° W 12:03:03 23° NW 12:06:18 10° NNE
Cosmos 1726 2.8 12:02:00 10° SW 12:05:19 31° WNW 12:08:39 10° NNW
Lacrosse 5 4.2 12:02:18 10° S 12:06:39 29° ESE 12:11:00 10° ENE
STARLINK-55 3.2 12:03:37 10° WSW 12:07:15 70° NW 12:10:55 10° NE
SMAP 3.1 12:06:51 10° N 12:11:27 60° WNW 12:16:00 10° SSW
CZ-3 R/B 3.3 12:01:13 10° WSW 12:11:50 28° SSW 12:16:13 10° SSE
Cosmos 1980 Rocket 2.8 12:07:16 10° WSW 12:12:23 34° WNW 12:17:32 10° N
STARLINK-75 3.5 12:10:53 10° WSW 12:14:45 61° NW 12:18:38 10° NE
STARLINK-58 3.5 12:11:26 10° WSW 12:15:26 69° NW 12:19:27 10° NE
STARLINK-62 3.5 12:13:09 10° WSW 12:17:09 65° NW 12:21:09 10° NE
Cosmos 1680 Rocket 3.6 12:13:00 10° SSW 12:18:15 62° WNW 12:23:33 10° NNE
Envisat 3.1 12:14:42 10° NNE 12:19:49 89° W 12:24:54 10° SSW
Cosmos 2218 Rocket 4.2 12:14:21 10° NNW 12:20:34 54° W 12:26:42 10° SSW
Timation 1 Rocket 4.4 12:14:56 10° NNW 12:20:57 79° WSW 12:26:57 10° SSE
COSMOS 2428 3.3 22:41:52 10° N 22:47:09 36° ENE 22:52:23 10° SE
IRS-1C Rocket 4.1 22:42:49 10° SSE 22:48:02 72° ENE 22:53:17 10° N
CZ-4C R/B 3.5 22:43:18 10° NNW 22:49:47 36° NE 22:57:05 10° ESE
Starlink C 2.6 22:47:20 10° SW 22:50:12 86° SE 22:53:05 10° NE
Starlink E 2.6 22:48:35 10° SW 22:51:27 89° SSE 22:54:21 10° NE
Cosmos 2219 Rocket 2.6 22:46:56 10° N 22:52:17 40° ENE 22:57:34 10° SE
Cosmos 2074 Rocket 4.1 22:46:27 10° S 22:52:40 66° E 22:58:55 10° NNE
Starlink J 2.6 22:49:49 10° SW 22:52:41 88° NNW 22:55:35 10° NE
Okean-O 3.1 22:48:37 10° SE 22:52:43 38° ENE 22:56:50 10° N
Starlink V 2.7 22:51:01 10° SW 22:53:55 86° NW 22:56:48 10° NE
Starlink H 2.7 22:52:17 10° SW 22:55:10 83° NNW 22:58:04 10° NE
COSMO-SKYMED 1 3.5 22:52:10 10° NE 22:55:59 29° E 22:59:46 10° SSE
Starlink F 2.7 22:53:32 10° SW 22:56:25 81° NW 22:59:19 10° NE
Starlink G 2.7 22:54:47 10° SW 22:57:40 78° NW 23:00:34 10° NE
PSLV R/B 4.4 22:54:06 10° N 22:58:08 65° WNW 23:02:10 10° SSW
Okean O Rocket 3.7 22:54:32 10° SSW 22:58:30 33° W 23:02:31 10° NNW
Starlink L 2.7 22:56:02 10° SW 22:58:55 76° NW 23:01:49 10° NE
Cosmos 2150 Rocket 4.0 22:54:14 10° S 22:59:22 71° ESE 23:04:31 10° NNE
Starlink A 2.8 22:57:18 10° WSW 23:00:11 73° NW 23:03:05 10° NE
Starlink R 2.8 22:58:33 10° WSW 23:01:27 71° NW 23:04:21 10° NE
Starlink K 2.9 22:59:47 10° WSW 23:02:41 69° NW 23:05:34 10° NE
Starlink M 2.9 23:01:00 10° WSW 23:03:53 66° NW 23:06:47 10° NE
Cosmos 1461 3.5 23:00:40 10° NNW 23:04:46 40° NE 23:09:00 10° ESE
USA 267 4.4 22:59:28 10° NE 23:05:08 33° NNW 23:10:48 10° W
Cosmos 2084 Rocket 3.9 23:04:19 10° NW 23:08:45 71° WSW 23:13:09 10° SSE
Cosmos 1626 Rocket 3.6 23:05:03 10° S 23:09:17 56° E 23:13:32 10° NNE
SMAP 3.8 23:09:46 10° S 23:14:20 59° WSW 23:18:58 10° NNW
Cosmos 1674 4.2 23:11:15 10° SSW 23:14:45 38° WNW 23:18:14 10° N
Nadezhda 3 Rocket 4.1 23:09:03 10° N 23:15:10 53° ENE 23:21:20 10° SSE
Cosmos 1340 Rocket 3.5 23:11:56 10° N 23:15:30 31° ENE 23:19:03 10° SE
Timation 2 Rocket 3.9 23:12:24 10° SSW 23:18:25 79° ESE 23:24:42 10° NNE
Cosmos 1125 Rocket 3.5 23:15:42 10° S 23:20:48 61° ESE 23:25:56 10° NNE
Cosmos 1300 2.7 23:19:46 10° N 23:23:32 57° E 23:27:16 10° SSE
SL-14 R/B 3.2 23:19:45 10° S 23:23:46 83° E 23:27:46 10° N
Cosmos 1939 Rocket 3.8 23:24:23 10° SE 23:27:32 24° ENE 23:30:44 10° NNE
Cosmos 1825 Rocket 4.5 23:25:25 10° SSE 23:29:04 27° E 23:32:15 12° NE
Cosmos 2341 Rocket 4.3 23:23:31 10° SSE 23:29:30 44° E 23:35:29 10° NNE
Cosmos 1271 Rocket 3.4 23:27:08 10° SSW 23:30:47 55° WNW 23:34:28 10° N
SJ 16-02 4.2 23:32:18 10° W 23:34:08 12° WNW 23:35:59 10° NNW
Envisat 3.4 23:29:11 10° S 23:34:14 69° WSW 23:39:19 10° NNW
Cosmos 2333 Rocket 2.2 23:30:32 10° NNW 23:36:17 88° WSW 23:41:58 10° SSE
Cosmos 1269 Rocket 4.5 23:32:26 10° N 23:37:20 37° ENE 23:42:13 10° SE
Meteor 1-24 Rocket 4.3 23:32:35 10° SSW 23:37:46 56° WNW 23:43:02 10° N
SL-8 Rocket 4.5 23:32:34 10° SSE 23:38:16 37° E 23:43:58 10° NNE
Cosmos 2237 Rocket 2.7 23:34:56 10° N 23:40:07 36° ENE 23:45:16 10° SE
NOSS 0 Rocket 4.0 23:34:46 10° NNW 23:40:54 57° ENE 23:46:59 10° SE
Meteor 2-10 Rocket 4.4 23:38:28 10° NNE 23:42:59 27° ENE 23:47:20 10° SE
CZ-4 R/B 4.3 23:39:18 10° SSE 23:43:25 80° ENE 23:47:34 10° N
SKYMED 2 3.6 23:39:45 10° N 23:44:06 81° WNW 23:48:26 10° SSW
Cosmos 1048 Rocket 4.0 23:39:02 10° NNW 23:44:12 85° WSW 23:49:19 10° SSE
Cosmos 1626 3.0 23:45:19 10° SSW 23:48:55 49° W 23:52:32 10° N
CZ-4 R/B 1.3 23:47:08 10° SSE 23:51:07 87° ENE 23:55:13 10° NNW
YAOGAN 6 3.8 23:51:49 10° S 23:55:23 45° W 23:58:57 10° NNW
